Home > Weather > Doha > Past weeks

Flag for Qatar Past Weather in Doha, Qatar — Yesterday and Last 2 Weeks

Now
99 °F

Passing clouds.


Feels Like: 95 °F
Forecast: 91 / 113 °F
Wind: 5 mph from Southeast

Location: Doha International Airport

Current Time: Jun 27, 2016 at 11:19:59 PM

Latest Report: Jun 27, 2016 at 10:00 PM


Visibility: N/A

Pressure: 29.45 "Hg

Humidity: 17%

Dew Point: 46 °F

Location of DohaLocation

Past Weather in Doha — Graph

°F

Doha Temperature Yesterday

Maximum temperature yesterday: 108 °F (at 12:00 PM)
Minimum temperature yesterday: 88 °F (at 4:00 AM)
Average temperature yesterday: 98 °F

High & Low Weather Summary for the Past Weeks

 TemperatureHumidityPressure
High117 °F (Jun 27, 3:00 PM)63% (Jun 23, 8:00 PM)29.65 "Hg (Jun 23, 8:00 PM)
Low84 °F (Jun 16, 5:00 AM)1% (Jun 14, 12:00 PM)29.39 "Hg (Jun 27, 4:00 PM)
Average98 °F24%29.53 "Hg
* Reported Jun 12 9:00 PM — Jun 27 9:00 PM, Doha, Weather by CustomWeather, © 2016

Note: Actual official high and low records may vary slightly from our data, if they occured in-between our weather recording intervals... More about our weather records

Advertising

Doha Weather History for the Previous 24 Hours

Scroll right to see more
 ConditionsComfort  
Time TempWeatherWind HumidityBarometerVisibility
9:00 PM
Mon, Jun 27
104 °FClear.9 mph12%29.45 "Hg10 mi
8:00 PM106 °FClear.8 mph8%29.42 "Hg10 mi
7:00 PM104 °FClear.7 mph17%29.42 "Hg10 mi
6:00 PM106 °FSunny.12 mph23%29.42 "Hg10 mi
5:00 PM109 °FSunny.14 mph15%29.39 "Hg10 mi
4:00 PM115 °FSunny.16 mph8%29.39 "Hg10 mi
3:00 PM117 °FSunny.8 mph3%29.42 "Hg10 mi
2:00 PM115 °FSunny.12 mph6%29.42 "Hg10 mi
1:00 PM113 °FSunny.8 mph7%29.45 "Hg10 mi
12:00 PM113 °FSunny.7 mph5%29.47 "Hg10 mi
11:00 AM113 °FSunny.8 mph2%29.47 "Hg10 mi
10:00 AM109 °FSunny.9 mph3%29.50 "Hg10 mi
9:00 AM108 °FClear.5 mph7%29.50 "Hg5 mi
8:00 AM102 °FClear.5 mph20%29.47 "Hg4 mi
7:00 AM100 °FPassing clouds.3 mph18%29.47 "HgN/A
6:00 AM93 °FClear.1 mph34%29.50 "Hg4 mi
5:00 AM90 °FClear.No wind55%29.47 "Hg4 mi
3:00 AM88 °FClear.3 mph62%29.47 "Hg4 mi
2:00 AM91 °FClear.6 mph59%29.45 "Hg4 mi
1:00 AM91 °FClear.3 mph52%29.45 "Hg4 mi
12:00 AM93 °FClear.No wind47%29.47 "Hg4 mi
11:30 PM
Sun, Jun 26
91 °FClear.1 mph46%29.47 "Hg4 mi
Weather by CustomWeather, © 2016

See weather overviewHow to use our weather pages